Location: Seattle
(47.6060°N, 122.3310°W)
Time: 20:37:57
(UTC-07:00)

ISS - Visible Passes

Search period start: 24 July 2014 00:00
Search period end: 03 August 2014 00:00
Orbit: 411 x 419 km, 51.6° (Epoch: 24 July)

Date Brightness Start Highest point End Pass type
(mag) Time Alt. Az. Time Alt. Az. Time Alt. Az.
24 Jul -3.4 03:07:14 62° SW 03:07:41 77° SSE 03:11:03 10° ENE visible
24 Jul -2.1 04:41:22 10° W 04:44:36 42° N 04:47:50 10° ENE visible
25 Jul -2.0 02:20:06 33° E 02:20:06 33° E 02:22:14 10° ENE visible
25 Jul -2.4 03:52:58 14° W 03:55:44 48° NNW 03:59:01 10° ENE visible
26 Jul -0.5 01:32:59 12° E 01:32:59 12° E 01:33:22 10° ENE visible
26 Jul -2.8 03:05:51 37° W 03:06:55 60° NNW 03:10:16 10° ENE visible
26 Jul -1.9 04:40:48 10° WNW 04:44:00 40° N 04:47:13 10° ENE visible
27 Jul -2.8 02:18:45 58° NE 02:18:45 58° NE 02:21:33 10° ENE visible
27 Jul -1.9 03:51:58 10° WNW 03:55:11 40° N 03:58:23 10° ENE visible
28 Jul -1.1 01:31:41 20° ENE 01:31:41 20° ENE 01:32:51 10° ENE visible
28 Jul -2.1 03:04:32 21° WNW 03:06:23 43° N 03:09:38 10° ENE visible
28 Jul -2.2 04:40:14 10° WNW 04:43:31 48° NNE 04:46:48 10° E visible
29 Jul -2.5 02:17:30 49° NNW 02:17:38 50° NNW 02:20:56 10° ENE visible
29 Jul -2.0 03:51:32 10° WNW 03:54:46 42° N 03:58:00 10° E visible
30 Jul -1.5 01:30:30 28° NE 01:30:30 28° NE 01:32:18 10° ENE visible
30 Jul -1.9 03:03:22 14° WNW 03:06:02 39° N 03:09:14 10° ENE visible
30 Jul -3.0 04:39:41 10° WNW 04:43:04 74° NNE 04:46:26 10° ESE visible
31 Jul -0.4 00:43:35 11° ENE 00:43:35 11° ENE 00:43:42 10° ENE visible
31 Jul -1.9 02:16:27 33° NW 02:17:19 40° N 02:20:32 10° ENE visible
31 Jul -2.6 03:51:05 10° WNW 03:54:25 56° NNE 03:57:45 10° E visible
01 Aug -1.6 01:29:41 32° NE 01:29:41 32° NE 01:31:53 10° ENE visible
01 Aug -2.2 03:02:35 11° WNW 03:05:46 46° N 03:09:03 10° E visible
01 Aug -3.2 04:39:16 10° WNW 04:42:36 57° SSW 04:45:54 10° SE visible
02 Aug -0.3 00:43:16 10° ENE 00:43:16 10° ENE 00:43:19 10° ENE visible
02 Aug -2.0 02:16:12 33° NW 02:17:08 41° N 02:20:21 10° ENE visible
02 Aug -3.4 03:50:42 10° WNW 03:54:05 84° SSW 03:57:28 10° ESE visible
02 Aug -2.4 22:11:56 10° SSW 22:14:51 28° SE 22:16:03 22° ESE visible
02 Aug -1.1 23:48:05 10° WSW 23:49:12 19° W 23:49:12 19° W visible
